Tracking 25723 objects as of 26-Jun-2022
HD Live streaming from Space Station
objects crossing your sky now

DELTA 1 DEB

Track DELTA 1 DEB now!
10-day predictions


NORAD ID: 37637
Int'l Code: 1978-026HY
Perigee: 868.0 km
Apogee: 975.6 km
Inclination: 98.8 °
Period: 103.3 minutes
Semi major axis: 7292 km
RCS: 0.0061 m2 (small)
Launch date: March 5, 1978
Source: United States (US)
Launch site: AIR FORCE WESTERN TEST RANGE (AFWTR)

Note: This is SATELLITE DEBRIS
aabbcc
Your satellite tracking list
Your tracking list is empty




NASA's NSSDC Master Catalog

Two Line Element Set (TLE):
1 37637U 78026HY  22176.67171784  .00000236  00000-0  20594-3 0  9992
2 37637  98.8024 153.9527 0073763 252.7998 106.5080 13.93997978992633
Source of the keplerian elements: AFSPC